STARLINK-1478, 45755

Orbit data source: Space-Track

STARLINK-1478, 45755 is a payload satellite owned by SpaceX/Seattle (US) in LEO that was launched on Sat, 13 Jun 2020 UTC via an FALCON 9 launch vehicle from the Air Force Eastern Test Range (AFETR). Payloads include a variety of satellites, spacecraft, and rockets equipped with specific instruments for various scientific and technological missions. These include communications satellites like Starlink; space stations such as the ISS; scientific satellites like the Hubble; Earth observation satellites from companies like Planet Labs, Umbra, and HawkEye 360; GPS; miniature CubeSats for education and research; and military/defense satellites.

Loading next visibility...
STARLINK-1478 details
Identifier
45755, 2020-038AB
Orbit
LEO
Last TLE update21 hours ago
Origin
Flag of USSpaceX/Seattle (US)
ManufacturerSpaceX/Seattle
MissionOperational Commercial Communications
Bus & MotorSTARLINK, Unknown motor
Mass260 kg wet, ~248 kg dry
Launch date (UTC)
2020-06-13 (5 years ago)
Launch vehicle
FALCON 9
Launch site
Air Force Eastern Test Range (AFETR)
Object type
Payload
Rocket body
Debris
Shape & HBRBox + 1 Pan, 8.86 m
Radar Cross Section13.562 m², Large (>1 m²)

Expand to show TLE details & history

TLE from 21 hours ago
0 STARLINK-1478
1 45755U 20038AB  24360.58151113  .00008257  00000-0  57268-3 0  9992
2 45755  53.0561  27.8488 0001343  86.9566 273.1576 15.06390715250281
Epoch: 2024-12-25T13:57Z
Definitive object data (Epoch: 2024-12-25T13:57:22.561Z)
Latitude-0.00008°
Longitude83.93153°
Altitude548.068 km
Speed7.589 km/s
True Right ascension01h 51m 23s
True Declination0° 00' 00"
Sunlit
Object was in daylight at TLE epoch
Visualization TLE readout
Latitude48.60349°
Longitude138.04276°
Altitude551.822 km
Speed7.592 km/s
Apparent Right ascension01h 43m 21s
Apparent Declination11° 05' 14"
Sunlit
Object is in full shadow
Visualization observer readout
Local Sidereal Time10:19:03
Azimuth305.429° NW
Elevation-20.458°
Doppler factor1
Orbital elements
Apogee altitude548.441 km
Perigee altitude546.58 km
Semi-major axis6,925.647 km
Eccentricity0.0001343
Inclination53.0561°
RAAN27.8488°
Arg. of periapsis86.9566°
True anomaly273.14223°
Mean anomaly273.1576°
Eccentric anomaly273.14992°
Mean motion3.76576 °/min
BSTAR0.00057268
Orbital period95.6 mins
Loading maneuver chart data...

STARLINK-1478 Visibility forecast

Observer location: undefined°, undefined

Span
Click to sort rows by Start time (UTC) header in descending order
Start Az.
Max El. time (UTC)
Max El. Az.
Max El.
End time (UTC)
End Az.
7 mins2024-12-26 11:08:47.685Z320.252° NNW2024-12-26 11:11:47.685Z29.024° NE39.448°2024-12-26 11:15:47.685Z114.489° SE
4 mins2024-12-26 12:49:47.685Z257.736° W2024-12-26 12:50:47.685Z238.469° WSW19.135°2024-12-26 12:53:47.685Z187.015° SSW
6 mins2024-12-27 04:21:47.685Z219.315° SW2024-12-27 04:23:47.685Z176.239° S43.415°2024-12-27 04:27:47.685Z53.612° ENE
5 mins2024-12-27 06:01:47.685Z294.92° NW2024-12-27 06:03:47.685Z333.073° NNW21.502°2024-12-27 06:06:47.685Z26.258° NE
4 mins2024-12-27 09:23:47.685Z348.16° N2024-12-27 09:25:47.685Z25.091° NE18.047°2024-12-27 09:27:47.685Z58.489° ENE
|